Home   Weather   Da Nang   Past weeks

Flag for Vietnam Past Weather in Da Nang, Vietnam — Yesterday and Last 2 Weeks

Now
95 °F

Partly sunny.


Feels Like: 110 °F
Forecast: 82 / 96 °F
Wind: 8 mph from North

Location: Da Nang Airport

Current Time: Aug 31, 2016 at 3:13:40 PM

Latest Report: Aug 31, 2016 at 2:30 PM


Visibility: N/A

Pressure: 29.71 "Hg

Humidity: 56%

Dew Point: 77 °F

Location of Da NangLocation

Past Weather in Da Nang — Graph

°F

Da Nang Temperature Yesterday

Maximum temperature yesterday: 95 °F (at 12:00 PM)
Minimum temperature yesterday: 77 °F (at 12:00 AM)
Average temperature yesterday: 83 °F

High & Low Weather Summary for the Past Weeks

 TemperatureHumidityPressure
High102 °F (Aug 20, 11:00 AM)100% (Aug 23, 11:30 PM)29.83 "Hg (Aug 23, 11:30 PM)
Low75 °F (Aug 23, 11:30 PM)37% (Aug 16, 3:30 PM)29.39 "Hg (Aug 18, 3:00 PM)
Average86 °F75%29.65 "Hg
* Reported Aug 16 2:00 PM — Aug 31 2:00 PM, Da Nang, Weather by CustomWeather, © 2016

Note: Actual official high and low records may vary slightly from our data, if they occured in-between our weather recording intervals... More about our weather records

Advertising

Da Nang Weather History for the Previous 24 Hours

Scroll right to see more
 ConditionsComfort  
Time TempWeatherWind HumidityBarometerVisibility
2:00 PM
Wed, Aug 31
93 °FScattered clouds.6 mph59%29.71 "HgN/A
1:30 PM99 °FScattered clouds.7 mph53%29.71 "HgN/A
1:00 PM97 °FScattered clouds.7 mph50%29.74 "HgN/A
12:30 PM95 °FScattered clouds.9 mph53%29.74 "HgN/A
12:00 PM95 °FScattered clouds.15 mph53%29.77 "HgN/A
11:30 AM97 °FScattered clouds.15 mph50%29.77 "HgN/A
11:00 AM97 °FScattered clouds.9 mph50%29.77 "HgN/A
10:30 AM97 °FScattered clouds.3 mph53%29.80 "HgN/A
10:00 AM95 °FScattered clouds.3 mph56%29.80 "HgN/A
9:30 AM95 °FScattered clouds.5 mph56%29.80 "HgN/A
9:00 AM93 °FScattered clouds.2 mph63%29.80 "HgN/A
8:30 AM91 °FPartly sunny.1 mph67%29.80 "HgN/A
8:00 AM86 °FPartly sunny.1 mph79%29.80 "HgN/A
7:30 AM84 °FPartly sunny.3 mph79%29.80 "Hg5 mi
7:00 AM82 °FPartly sunny.3 mph84%29.80 "Hg5 mi
6:30 AM81 °FPartly sunny.3 mph89%29.77 "Hg5 mi
6:00 AM79 °FPartly sunny.5 mph94%29.77 "Hg5 mi
5:30 AM79 °FPassing clouds.3 mph94%29.77 "Hg4 mi
5:00 AM79 °FPassing clouds.5 mph94%29.77 "Hg4 mi
4:30 AM79 °FPassing clouds.2 mph94%29.77 "Hg4 mi
4:00 AM79 °FPassing clouds.2 mph94%29.77 "Hg4 mi
3:30 AM79 °FPassing clouds.3 mph94%29.77 "Hg4 mi
3:00 AM79 °FPassing clouds.1 mph94%29.77 "Hg4 mi
2:30 AM79 °FPassing clouds.5 mph94%29.77 "Hg4 mi
2:00 AM79 °FPassing clouds.3 mph94%29.77 "Hg4 mi
1:30 AM79 °FPassing clouds.3 mph94%29.77 "Hg4 mi
1:00 AM79 °FPassing clouds.5 mph94%29.77 "Hg4 mi
12:30 AM81 °FPassing clouds.5 mph89%29.80 "Hg4 mi
12:00 AM81 °FPassing clouds.2 mph89%29.80 "Hg4 mi
11:30 PM
Tue, Aug 30
79 °FPassing clouds.2 mph94%29.80 "Hg5 mi
11:00 PM81 °FPassing clouds.1 mph89%29.83 "Hg5 mi
10:30 PM81 °FPassing clouds.2 mph89%29.83 "Hg5 mi
10:00 PM82 °FPassing clouds.2 mph84%29.83 "Hg5 mi
9:30 PM82 °FPassing clouds.3 mph84%29.83 "Hg5 mi
9:00 PM82 °FPassing clouds.3 mph84%29.83 "Hg5 mi
8:30 PM82 °FPassing clouds.5 mph79%29.83 "Hg5 mi
8:00 PM82 °FPassing clouds.6 mph84%29.80 "Hg5 mi
7:30 PM82 °FPassing clouds.6 mph89%29.77 "Hg5 mi
7:00 PM86 °FPassing clouds.2 mph79%29.77 "Hg5 mi
6:30 PM86 °FPassing clouds.3 mph79%29.74 "Hg5 mi
6:00 PM86 °FScattered clouds.5 mph79%29.74 "Hg5 mi
5:30 PM86 °FScattered clouds.5 mph79%29.74 "HgN/A
5:00 PM86 °FScattered clouds.8 mph75%29.71 "HgN/A
4:30 PM88 °FScattered clouds.7 mph75%29.71 "HgN/A
4:00 PM88 °FScattered clouds.7 mph75%29.71 "HgN/A
3:30 PM88 °FScattered clouds.10 mph75%29.71 "HgN/A
3:00 PM90 °FScattered clouds.8 mph71%29.71 "HgN/A
Weather by CustomWeather, © 2016

See weather overviewHow to use our weather pages